This demonstration page uses our WeatherBlox Daily Observations layout. Learn more.

Left ArrowRight Arrow

38.89511, -77.03637

Hourly Observations for December 6, 2022

Temp ( °F °C ) Dew Point ( °F °C ) Humidity (%) Winds ( mph kmh ) Pressure ( in mb ) Visibility ( mi km ) Precip ( " mm )
12:52 am 00:52 Mostly Cloudy 39 3.9 33 0.6 79 79 NNE 3 6 30.25 1024 10 16 0.00 0.00
1:34 am 01:34 Cloudy 38 3.3 33 0.6 82 82 NNE 3 6 30.26 1025 10 16 0.00 0.00
1:52 am 01:52 Cloudy 39 3.9 34 1.1 82 82 NE 3 6 30.26 1025 10 16 0.00 0.00
2:18 am 02:18 Cloudy 38 3.3 34 1.1 85 85 NNE 3 6 30.26 1025 10 16 0.00 0.00
2:45 am 02:45 Cloudy 40 4.4 34 1.1 79 79 NNE 5 7 30.27 1025 10 16 0.00 0.00
3:52 am 03:52 Cloudy 41 5 36 2.2 82 82 N 3 6 30.24 1024 10 16 0.00 0.00
4:52 am 04:52 Cloudy 41 5 36 2.2 82 82 NE 3 6 30.24 1024 10 16 0.01 0.13
5:52 am 05:52 Cloudy 41 5 37 2.8 86 86 NE 7 11 30.23 1024 10 16 0.01 0.13
6:52 am 06:52 Cloudy 42 5.6 38 3.3 85 85 NE 5 7 30.24 1024 10 16 0.00 0.00
7:35 am 07:35 Cloudy with Drizzle 43 6.1 39 3.9 86 86 Calm 30.27 1025 9 14 0.01 0.13
7:52 am 07:52 Cloudy with Light Rain 43 6.1 39 3.9 86 86 Calm 30.27 1025 5 8 0.01 0.13
8:04 am 08:04 Cloudy with Light Rain 43 6.1 40 4.4 89 89 ENE 6 9 30.27 1025 2 2 0.01 0.13
8:52 am 08:52 Cloudy with Rain 43 6.1 41 5 93 93 NE 5 7 30.27 1025 1 2 0.05 1.27
9:17 am 09:17 Cloudy with Light Rain 43 6.1 41 5 93 93 NE 5 7 30.28 1025 2 3 0.04 1.02
9:27 am 09:27 Cloudy with Light Rain 43 6.1 41 5 93 93 NE 5 7 30.28 1025 3 4 0.05 1.27
9:38 am 09:38 Cloudy with Light Rain 43 6.1 41 5 93 93 ENE 7 11 30.27 1025 3 4 0.06 1.52
9:52 am 09:52 Cloudy with Drizzle 43 6.1 42 5.6 97 97 ENE 3 6 30.27 1025 3 4 0.06 1.52
10:16 am 10:16 Cloudy with Mist and Fog 44 6.7 43 6.1 96 96 Calm 30.27 1025 3 5 0.01 0.13
10:28 am 10:28 Cloudy with Drizzle 45 7.2 43 6.1 93 93 Calm 30.26 1025 3 5 0.01 0.13
10:52 am 10:52 Cloudy with Light Rain 46 7.8 43 6.1 89 89 Calm 30.26 1025 3 5 0.01 0.13
11:52 am 11:52 Cloudy with Mist and Fog 45 7.2 44 6.7 97 97 Calm 30.25 1024 3 5 0.01 0.13
12:30 pm 12:30 Cloudy with Drizzle 46 7.8 44 6.7 93 93 SE 3 6 30.24 1024 2 3 0.01 0.13
12:38 pm 12:38 Cloudy with Drizzle 46 7.8 45 7.2 96 96 SE 5 7 30.24 1024 2 2 0.01 0.13
12:52 pm 12:52 Cloudy with Drizzle 47 8.3 45 7.2 93 93 Calm 30.23 1024 2 3 0.01 0.13
1:32 pm 13:32 Cloudy with Drizzle 47 8.3 45 7.2 93 93 SSW 6 9 30.22 1023 2 3 0.01 0.25
1:42 pm 13:42 Cloudy with Drizzle 47 8.3 45 7.2 93 93 S 6 9 30.22 1023 3 4 0.01 0.25
1:52 pm 13:52 Cloudy with Drizzle 47 8.3 45 7.2 93 93 S 6 9 30.22 1023 3 5 0.01 0.25
2:00 pm 14:00 Cloudy with Drizzle 47 8.3 46 7.8 97 97 S 6 9 30.22 1023 4 6 0.01 0.13
2:31 pm 14:31 Cloudy with Mist and Fog 47 8.3 45 7.2 93 93 SSW 6 9 30.22 1023 6 10 0.01 0.13
2:41 pm 14:41 Cloudy with Drizzle 47 8.3 45 7.2 93 93 S 7 11 30.21 1023 6 10 0.01 0.13
2:52 pm 14:52 Cloudy with Drizzle 47 8.3 45 7.2 93 93 S 7 11 30.21 1023 5 8 0.01 0.13
3:52 pm 15:52 Cloudy with Drizzle 47 8.3 46 7.8 97 97 S 7 11 30.21 1023 4 6 0.01 0.13
4:52 pm 16:52 Cloudy with Light Rain 48 8.9 46 7.8 93 93 S 7 11 30.22 1023 5 8 0.01 0.25
5:36 pm 17:36 Cloudy with Light Rain 48 8.9 46 7.8 93 93 S 8 13 30.22 1023 5 8 0.03 0.76
5:52 pm 17:52 Cloudy with Light Rain 48 8.9 46 7.8 93 93 S 8 13 30.22 1023 5 8 0.03 0.76
6:52 pm 18:52 Cloudy 48 8.9 47 8.3 96 96 S 9 15 30.22 1023 8 13 0.01 0.25
7:08 pm 19:08 Cloudy with Drizzle 48 8.9 47 8.3 96 96 S 10 17 30.23 1024 4 6 0.01 0.13
7:16 pm 19:16 Cloudy with Drizzle 48 8.9 47 8.3 96 96 S 9 15 30.23 1024 3 5 0.01 0.13
7:18 pm 19:18 Cloudy with Drizzle 48 8.9 47 8.3 96 96 S 9 15 30.23 1024 4 6 0.01 0.13
7:42 pm 19:42 Cloudy with Light Rain 48 8.9 47 8.3 96 96 S 12 19 30.23 1024 4 6 0.01 0.13
7:52 pm 19:52 Cloudy with Light Rain 48 8.9 47 8.3 96 96 S 9 15 30.23 1024 5 8 0.01 0.13
8:13 pm 20:13 Cloudy with Light Rain 49 9.4 47 8.3 93 93 S 10 17 30.22 1023 6 10 0.01 0.13
8:52 pm 20:52 Cloudy 50 10 48 8.9 93 93 SSW 9 15 30.22 1023 9 14 0.01 0.13
9:36 pm 21:36 Cloudy 50 10 48 8.9 93 93 S 8 13 30.21 1023 10 16 0.00 0.00
9:52 pm 21:52 Cloudy with Light Rain 50 10 48 8.9 93 93 S 7 11 30.22 1023 9 14 0.01 0.13
10:03 pm 22:03 Cloudy 50 10 48 8.9 93 93 S 7 11 30.22 1023 9 14 0.01 0.13
10:22 pm 22:22 Cloudy 50 10 48 8.9 93 93 S 8 13 30.22 1023 9 14 0.01 0.13
10:52 pm 22:52 Cloudy with Drizzle 50 10 49 9.4 96 96 S 9 15 30.22 1023 5 8 0.01 0.13
11:10 pm 23:10 Cloudy 51 10.6 49 9.4 92 92 SSW 7 11 30.21 1023 9 14 0.01 0.13
11:52 pm 23:52 Cloudy with Light Rain 51 10.6 49 9.4 92 92 S 6 9 30.21 1023 8 13 0.01 0.13

Powered by AerisWeather